Theta_e
307 307 307 306 305 304 304 303 302 299 297 295 294 293 293 292 292 292 292 292 292 292 292 292 291 290 290 289 289 289 288 288 288 288 287 287 287 286 286 286 286 285 285 285 285 285 285 285 284 284 283 282 282 281 280 279 279 278 278 278 279 279 280 281 282 283 283 282 282 283 282 282 283 283 283 283 283 283 284 284 284 284 284 285 285
308 308 307 305 305 304 303 302 301 300 298 296 294 293 292 292 291 291 291 291 291 292 292 291 290 290 290 289 289 288 288 288 288 287 287 287 286 286 286 285 285 285 285 285 285 284 284 284 284 284 283 282 281 281 280 279 278 277 277 277 278 279 280 280 281 281 281 281 281 281 281 281 282 282 281 281 282 282 282 283 283 282 282 283 283
308 307 306 305 304 302 301 301 300 299 298 296 294 293 292 291 291 291 291 291 291 291 291 291 290 290 289 289 288 288 288 288 287 287 286 286 286 286 285 285 285 285 285 284 284 284 284 284 284 283 282 281 281 280 279 278 277 276 276 275 276 278 279 279 279 279 279 279 279 279 280 280 280 280 280 281 281 281 282 281 281 281 281 281 282
307 307 306 305 303 301 300 299 299 298 297 296 294 292 291 291 291 291 291 291 291 291 290 290 290 290 289 288 288 288 288 287 287 286 286 286 286 285 285 285 285 284 284 284 284 283 284 284 283 283 282 281 280 279 278 276 275 274 274 274 274 275 276 276 276 276 277 277 277 278 278 278 278 279 279 280 280 280 280 279 279 280 280 281 282
304 306 306 304 303 302 300 298 298 297 297 295 294 292 291 291 290 290 290 290 290 290 290 289 289 289 289 288 288 287 287 287 286 286 286 285 285 285 285 284 284 284 284 284 283 283 283 283 283 282 281 280 279 278 276 275 274 273 272 272 272 273 273 273 274 274 275 275 275 276 276 276 277 277 278 279 279 278 278 279 279 280 280 281 282
302 303 303 303 302 301 299 298 297 297 296 295 293 292 291 291 290 290 290 290 290 290 289 289 289 289 288 288 287 287 286 286 286 286 285 285 285 284 284 284 284 284 283 283 283 283 283 283 283 282 280 279 278 276 274 273 273 272 272 272 272 272 272 272 272 273 273 274 274 275 275 276 276 277 278 278 278 278 279 279 279 280 281 282 283
302 302 302 301 301 300 299 298 297 296 295 293 292 291 291 290 290 290 290 290 290 289 289 289 289 288 288 287 287 286 286 285 285 285 285 284 284 284 283 283 283 283 283 283 282 282 282 282 282 281 279 277 276 274 273 273 273 273 273 273 273 273 272 272 272 272 273 273 274 274 275 276 277 277 278 278 278 278 279 279 280 281 281 282 283
302 302 301 300 300 299 298 296 295 294 293 292 291 291 290 290 289 289 289 290 289 289 289 289 288 287 287 287 286 286 285 285 285 284 284 284 283 283 283 283 283 283 282 282 282 282 282 282 281 280 278 276 274 274 273 273 273 273 274 274 274 273 273 273 273 273 273 273 274 274 275 276 276 277 277 277 278 278 279 279 280 281 281 282 283
302 301 300 300 299 297 295 294 293 292 291 290 290 290 290 290 289 289 289 289 289 289 288 288 287 287 287 286 286 285 285 285 284 284 284 283 283 283 283 283 282 282 282 281 281 281 281 281 280 279 276 275 274 274 274 274 274 274 274 274 274 274 274 274 273 273 273 273 274 274 275 276 276 276 277 277 277 278 279 279 280 281 282 282 283
302 301 300 299 297 295 293 292 291 290 289 289 290 290 290 289 289 289 289 289 288 288 288 287 287 286 286 285 285 285 284 284 284 284 283 283 283 283 282 282 282 281 281 281 281 281 280 280 278 276 275 274 274 274 274 274 275 275 274 274 274 274 274 274 274 274 274 274 274 274 275 276 276 277 277 277 278 278 279 280 280 281 282 283 283
301 300 299 297 296 294 293 292 290 289 288 289 289 289 289 289 289 289 289 288 288 288 288 287 286 286 285 285 284 284 284 284 284 283 283 282 282 282 282 282 281 281 280 280 280 280 279 278 276 275 274 274 274 274 274 274 274 274 275 275 274 274 275 275 275 275 275 275 275 275 275 276 276 277 277 278 278 279 280 280 281 281 282 283 283
300 299 298 296 295 294 293 291 290 289 288 289 289 289 289 289 289 289 288 288 288 288 287 286 286 286 285 284 284 284 284 284 284 283 283 282 282 281 281 280 280 280 280 280 280 279 279 277 276 274 274 274 274 274 274 274 274 274 274 275 275 275 275 275 275 275 275 275 276 276 276 276 277 277 278 278 279 280 280 281 281 282 283 283 283
300 298 297 296 295 293 292 290 289 288 288 289 289 289 289 288 288 288 288 288 287 287 286 286 286 285 284 284 284 284 284 284 283 283 282 282 281 281 280 280 279 280 279 279 279 279 278 276 275 275 275 274 275 275 275 275 275 275 275 275 275 275 275 275 275 275 275 276 276 276 277 277 277 278 278 279 279 279 280 280 281 281 281 282 282
300 298 296 295 293 292 291 290 289 288 288 288 288 288 288 288 288 288 287 287 287 287 286 286 285 285 284 284 284 284 284 284 283 282 282 282 281 280 279 279 279 279 279 279 279 278 277 276 275 275 275 275 275 275 275 275 275 275 275 275 275 275 275 275 275 275 275 275 276 276 276 277 277 278 278 279 278 278 279 279 279 280 280 281 281
299 297 295 294 292 291 290 289 288 288 288 288 288 288 288 288 287 287 287 287 287 286 286 286 286 285 285 285 284 284 284 283 283 282 282 281 280 280 279 279 279 279 279 279 278 278 277 276 275 275 275 275 275 276 276 276 276 276 276 276 276 276 276 276 275 276 276 276 276 276 276 277 277 277 277 278 278 278 278 279 279 280 280 281 281
298 296 295 293 292 290 289 288 288 288 288 288 288 287 287 287 287 287 287 287 286 286 286 286 286 286 285 285 284 284 283 283 282 282 281 281 280 279 279 279 279 279 279 278 278 277 277 276 275 275 275 276 276 276 276 276 276 276 276 276 275 275 275 275 275 276 276 276 276 276 277 277 277 277 277 278 279 279 279 280 280 280 281 281 282
298 296 295 293 292 291 290 289 289 288 288 288 288 287 287 287 287 287 287 286 286 286 287 287 286 286 285 285 285 284 283 282 282 281 281 280 279 279 279 279 279 279 278 277 277 277 276 275 275 275 275 275 275 275 276 276 276 276 276 275 275 275 275 275 275 275 276 276 276 277 277 277 278 278 278 279 279 280 280 280 281 281 281 282 282
298 297 296 294 293 292 291 290 289 288 288 288 288 287 287 287 287 287 287 287 287 287 287 287 286 285 285 285 284 284 283 282 281 281 280 279 279 279 279 279 279 278 277 276 276 276 276 275 275 275 275 274 274 275 275 276 276 276 276 276 275 275 275 275 275 275 275 276 276 276 277 277 277 278 278 279 279 280 280 281 281 281 282 282 283
300 299 297 295 293 292 291 290 289 288 288 288 287 287 287 287 287 287 287 287 287 287 287 287 286 285 285 284 284 283 282 281 281 280 279 279 279 279 279 279 277 276 276 275 275 275 275 275 275 274 274 274 274 274 275 276 276 276 276 276 275 275 275 275 275 275 275 276 276 276 277 277 277 277 278 278 279 279 280 280 280 281 282 282 282
301 299 296 294 293 291 290 289 288 288 288 287 287 287 287 287 287 287 287 287 287 287 287 286 285 285 284 284 283 282 281 281 280 279 279 279 279 279 279 278 276 275 275 274 274 274 274 274 275 275 274 274 274 275 276 276 276 275 275 275 275 274 274 274 275 275 276 276 276 277 277 277 278 277 278 278 278 278 279 279 279 280 281 282 282
299 298 295 293 292 290 289 288 288 287 287 287 287 287 287 287 287 287 287 288 288 287 287 286 285 285 284 283 282 281 281 280 279 279 279 279 279 279 278 276 275 274 274 274 274 274 274 275 275 275 274 274 274 275 275 275 275 274 274 274 274 274 274 274 275 275 275 275 275 276 277 278 278 278 278 278 278 278 279 279 280 280 281 282 282
299 298 295 292 291 290 288 287 287 287 287 287 287 287 287 287 287 287 287 288 288 287 286 286 285 284 283 282 281 280 280 279 279 278 278 279 279 278 276 275 274 274 274 274 274 274 274 274 274 274 273 273 274 274 274 274 274 273 272 273 273 274 274 274 274 274 274 274 275 276 277 278 278 278 278 278 278 279 279 279 280 281 281 282 282
299 297 295 292 290 289 288 287 286 286 286 286 286 287 287 287 287 287 288 288 287 287 286 285 284 282 281 281 280 279 279 278 278 278 278 278 279 277 275 274 274 274 273 274 274 274 274 273 273 273 273 274 274 274 273 274 273 272 272 272 273 273 273 273 272 272 273 273 274 275 277 278 278 278 279 279 279 279 279 280 281 281 282 282 283
298 296 293 291 290 288 287 286 285 285 286 286 286 286 287 287 287 287 288 287 287 287 286 284 282 281 280 279 279 278 278 278 278 278 278 278 278 276 274 274 274 274 274 274 274 274 273 272 272 273 274 274 274 274 274 274 272 271 271 271 271 271 271 271 271 271 271 272 273 274 275 276 278 278 279 279 280 280 280 281 281 282 282 283 283
297 295 292 291 289 288 286 285 285 285 286 286 286 286 287 287 287 287 287 287 287 286 284 282 281 280 279 278 278 278 278 278 278 278 278 278 276 275 274 274 274 274 274 274 274 273 272 272 273 273 274 274 274 274 274 273 271 270 270 270 270 270 270 270 270 270 271 271 272 272 273 275 276 277 278 279 280 280 281 282 282 282 283 283 284
296 294 291 290 288 287 286 285 284 285 285 286 286 286 287 287 288 288 288 287 286 284 283 281 280 279 278 278 278 277 277 277 278 278 278 276 274 274 274 274 274 274 274 273 273 272 272 273 273 273 274 274 274 274 273 272 271 270 270 269 269 269 269 270 270 270 270 271 271 272 272 273 274 275 276 278 279 280 281 282 283 283 283 284 285
295 293 291 289 287 286 285 284 284 285 285 285 286 286 287 287 288 288 288 287 285 283 282 281 280 279 278 278 277 277 277 277 278 277 276 274 273 273 273 273 274 274 273 272 272 272 273 273 273 274 274 273 273 273 272 272 271 270 269 269 268 268 269 269 270 270 270 270 271 271 272 272 273 274 275 276 277 280 281 283 284 284 284 285 285
293 292 290 288 287 286 285 284 284 285 285 285 286 286 287 287 287 287 287 286 284 283 282 281 279 278 278 278 277 277 277 277 277 275 274 272 272 272 273 273 273 273 273 272 272 273 273 273 274 274 273 273 273 273 272 271 271 270 269 269 268 268 269 269 269 269 270 270 270 271 271 271 272 272 273 274 276 278 280 282 284 285 285 286 286
291 290 289 287 286 285 284 284 284 285 285 285 286 286 287 288 288 287 285 283 282 281 280 279 279 278 277 277 277 277 277 276 275 274 273 273 272 272 272 273 273 273 272 272 273 273 273 273 273 273 273 273 272 272 271 271 270 270 269 269 268 268 269 269 269 269 269 270 270 270 271 271 271 272 273 274 275 276 277 279 282 284 286 287 287
289 288 287 286 285 284 283 283 284 285 285 285 286 286 286 285 285 285 283 281 280 279 279 278 277 277 277 277 277 276 276 275 274 273 273 273 273 273 273 273 273 273 273 273 273 273 273 273 273 272 272 272 272 272 271 270 269 269 269 269 269 269 269 269 269 269 269 270 270 270 271 271 271 272 272 273 273 274 275 276 279 282 284 286 287
289 287 286 285 285 284 283 283 284 284 285 286 287 287 285 283 282 281 281 280 279 278 277 277 276 276 276 276 276 275 274 274 273 274 274 273 273 273 273 273 272 272 273 273 273 273 273 272 272 272 272 272 271 271 270 269 268 268 268 268 269 269 269 269 269 269 269 270 270 271 271 271 271 271 271 272 272 273 274 275 276 279 282 285 287
289 288 286 284 284 283 283 283 284 284 285 286 287 287 286 284 281 279 278 278 277 277 276 276 276 276 276 275 275 274 274 273 273 274 273 273 273 273 272 272 272 272 273 273 273 273 272 271 271 271 271 271 271 271 270 269 268 268 268 268 268 269 269 269 269 269 269 270 270 271 271 271 271 271 271 271 271 272 273 274 275 277 280 283 286
289 287 286 284 283 282 282 283 284 285 286 286 286 285 285 285 283 280 277 276 275 275 276 275 275 274 274 274 273 273 273 273 273 273 273 273 273 273 272 272 272 272 273 273 273 272 271 271 270 270 271 271 271 271 270 270 269 268 268 268 268 268 269 269 269 269 270 270 270 271 271 271 270 270 270 271 271 271 272 273 274 275 277 280 283
287 286 286 284 283 282 282 283 284 285 286 286 286 285 284 284 283 281 279 276 275 274 274 274 273 273 273 272 272 272 273 273 273 273 273 273 273 273 272 272 272 272 273 273 272 271 270 270 270 270 270 270 270 270 270 270 269 268 268 268 268 268 269 269 269 269 270 270 270 270 270 270 270 270 270 270 270 271 271 272 272 274 275 277 280
285 284 284 284 283 283 283 283 284 286 286 286 286 286 284 282 281 280 279 278 277 276 275 274 273 273 272 272 272 272 273 273 273 273 273 273 273 273 272 272 273 273 273 272 272 271 270 270 270 269 269 270 270 270 270 270 269 269 268 268 268 268 269 269 269 269 270 270 270 270 270 270 270 270 269 270 270 270 270 271 271 272 274 275 278
283 282 282 282 282 282 283 284 285 286 286 286 286 285 283 281 279 278 278 278 278 277 275 274 273 273 273 272 272 272 273 273 273 273 273 273 273 273 273 273 273 273 273 272 271 271 270 269 269 269 269 269 269 270 270 270 269 269 269 268 268 268 269 269 269 269 270 270 270 270 270 270 270 269 269 269 269 270 270 270 271 271 272 274 276
282 281 280 281 281 282 283 284 285 286 286 286 285 283 281 280 279 277 277 276 276 275 274 274 273 273 273 272 272 273 273 273 273 272 272 272 273 273 273 273 273 273 272 272 271 271 270 269 269 269 269 269 269 269 270 270 270 269 269 269 269 269 269 269 269 269 270 270 270 270 270 270 270 269 269 269 269 269 269 270 270 270 271 273 275
280 279 279 279 280 281 283 284 285 285 286 285 284 282 280 279 277 276 276 275 275 274 274 274 273 273 272 272 272 273 273 273 272 272 272 272 272 273 273 273 272 272 272 272 271 271 270 270 269 269 269 269 269 269 269 270 270 269 269 269 269 269 269 269 269 269 270 270 270 270 270 270 270 269 269 269 269 269 269 269 270 270 271 272 273
277 277 277 278 279 281 283 284 285 285 285 283 282 281 279 278 277 276 275 275 275 274 274 273 273 272 272 272 272 272 272 272 272 272 272 272 273 273 273 272 272 272 272 272 271 271 271 270 269 269 269 268 269 269 269 270 270 269 269 269 269 269 269 269 269 270 270 270 270 270 270 270 270 269 269 269 269 269 269 269 269 270 270 271 272
276 275 276 278 279 281 283 285 286 285 283 282 280 279 278 277 276 276 275 275 274 274 273 273 272 272 272 272 272 272 272 272 272 272 273 273 273 273 272 272 272 272 272 272 271 271 271 270 269 269 268 268 268 269 269 270 270 270 269 269 269 269 269 269 270 270 270 270 270 270 270 270 270 269 269 269 269 269 269 269 269 269 270 271 272
275 275 276 277 279 281 283 285 285 284 283 281 280 278 277 276 275 275 274 274 273 273 272 272 272 272 272 272 272 272 272 272 273 273 273 273 272 272 272 272 272 272 271 271 271 271 271 270 269 269 268 268 268 268 269 270 270 270 269 269 269 269 269 270 270 270 270 270 270 270 270 270 270 269 269 269 269 269 269 269 269 270 270 271 272
274 274 275 277 280 283 285 285 284 283 281 280 278 277 276 275 274 274 273 273 273 273 273 272 272 272 273 273 273 273 273 273 273 273 273 272 272 272 272 272 272 271 271 271 271 271 271 270 270 269 268 268 268 268 268 269 270 269 269 268 268 269 269 269 270 270 270 270 270 269 270 270 269 269 269 269 269 269 269 269 269 270 270 272 273
273 275 277 279 282 284 286 285 283 281 279 277 276 275 275 274 274 273 273 273 273 273 273 273 273 273 273 273 273 273 273 273 273 272 272 272 272 272 272 272 272 271 271 271 271 271 271 270 270 269 269 268 268 268 268 269 269 269 269 268 268 269 269 269 270 270 270 269 269 269 270 270 270 269 269 269 269 269 269 269 270 270 271 272 274
274 277 279 281 283 285 285 283 281 279 277 276 275 274 274 274 274 273 273 273 273 273 273 273 273 273 273 273 273 273 273 272 272 272 272 272 272 272 272 272 272 271 271 271 271 271 270 270 270 270 270 269 268 268 268 269 269 269 269 268 268 269 269 269 270 270 270 269 269 269 269 270 270 269 269 269 269 269 269 269 270 271 272 273 275
276 279 282 282 283 283 282 280 279 277 276 275 274 274 273 273 274 273 273 273 273 273 273 273 272 272 273 273 272 272 272 271 271 272 272 272 272 272 272 272 271 271 271 271 271 271 270 270 270 270 270 270 269 269 269 269 269 269 269 269 268 269 269 270 270 270 270 269 269 269 269 269 269 269 269 269 269 269 269 269 270 271 273 275 277
279 282 283 283 282 281 280 278 277 276 275 274 274 274 273 273 273 273 273 273 273 273 272 272 272 272 272 272 271 271 271 271 271 271 271 271 272 272 272 271 271 271 271 271 271 270 270 270 270 270 270 270 270 269 269 269 269 269 269 269 269 269 269 270 270 270 270 269 269 269 269 269 269 269 269 269 269 269 269 269 270 271 274 276 278
281 282 283 283 282 280 278 277 276 275 274 274 273 273 273 272 272 272 272 272 272 272 272 272 271 271 271 271 270 270 270 270 270 271 271 271 271 271 271 271 271 271 271 271 270 270 270 270 270 270 269 270 270 269 269 269 269 269 269 269 269 269 269 270 270 270 270 269 269 269 269 269 269 269 269 269 269 269 269 269 270 272 274 276 279
280 281 281 281 281 279 278 276 275 274 274 273 273 272 272 272 272 272 272 271 271 271 271 271 270 270 270 270 270 270 270 270 270 270 271 271 271 271 271 271 271 271 270 270 270 270 270 270 270 269 269 269 270 269 269 269 269 269 269 269 269 268 269 270 270 270 270 269 269 269 269 269 269 269 269 269 269 269 269 269 270 272 274 277 280
280 280 279 279 279 278 277 276 274 274 273 272 272 272 272 271 271 271 271 271 271 270 270 270 270 270 269 269 269 269 269 270 270 270 270 271 271 271 271 271 270 270 270 270 270 270 270 270 269 269 269 269 269 269 269 269 269 269 269 269 268 268 269 270 270 270 270 269 269 269 269 269 269 269 269 269 269 269 269 269 270 271 274 278 281
278 278 278 278 277 277 276 275 274 273 272 272 272 271 271 271 271 271 270 270 270 270 269 269 269 269 269 269 269 269 269 270 270 270 270 271 271 270 270 270 270 270 270 270 270 270 270 270 270 270 269 269 269 269 269 269 269 269 269 268 268 268 269 270 270 270 270 269 269 269 269 269 269 269 269 269 269 269 269 269 270 271 273 277 280
276 277 277 277 276 275 274 273 273 272 271 271 271 271 271 270 270 270 270 270 270 269 269 269 269 269 269 269 269 269 269 270 270 270 271 271 270 270 270 270 270 270 270 270 270 270 269 269 270 270 270 270 269 269 269 269 269 270 269 268 267 268 269 270 270 270 270 269 269 269 269 269 269 269 269 269 269 268 269 269 270 271 272 276 279
Wind_Speed
41 40 40 40 40 39 38 39 40 43 45 47 49 49 48 46 45 42 40 37 34 31 28 26 25 23 22 23 24 24 24 24 24 24 23 22 22 22 22 22 23 24 24 25 26 27 28 29 30 30 31 32 33 33 33 34 34 34 32 31 32 33 35 37 41 47 51 52 56 61 59 54 52 48 43 45 47 44 44 46 46 47 49 51 53
42 42 42 42 43 42 42 42 42 43 45 47 49 49 48 47 45 43 40 37 34 31 28 26 25 23 23 24 24 24 24 24 24 22 22 21 21 21 22 23 23 24 24 25 26 26 28 29 30 30 30 32 33 32 32 32 31 32 31 29 32 35 36 38 40 43 50 52 51 56 57 52 53 55 49 47 48 44 44 46 46 47 51 53 56
43 43 43 44 45 45 45 45 44 44 45 46 48 49 48 47 45 43 40 37 34 30 28 26 24 24 24 25 24 24 24 24 22 21 21 21 21 21 22 23 23 24 25 25 26 26 27 29 29 30 30 31 32 31 31 30 29 29 31 29 30 35 36 37 40 43 47 50 49 52 55 53 53 53 47 43 43 41 43 47 50 52 53 53 54
44 44 44 44 45 46 47 47 46 46 46 47 48 49 48 47 45 43 40 37 33 30 28 26 25 25 25 25 24 24 24 23 21 20 20 21 22 21 22 22 23 24 25 25 26 27 28 29 29 30 30 31 32 32 31 30 29 29 30 29 29 31 34 34 36 40 43 48 51 49 48 47 47 47 44 44 46 46 48 51 52 51 50 49 49
46 44 43 44 45 47 48 49 48 48 47 47 49 49 48 47 45 43 40 36 33 30 28 26 25 26 25 24 24 24 23 21 20 20 20 21 21 22 22 23 23 25 25 26 26 27 28 30 31 30 31 31 31 32 31 30 30 29 29 30 29 29 31 31 32 34 38 44 47 43 40 40 42 42 42 44 46 47 47 47 47 46 46 46 46
46 45 43 43 44 46 49 50 50 49 48 48 49 49 48 47 45 42 39 36 32 29 28 26 26 26 25 24 24 23 21 20 19 20 20 21 21 22 23 23 24 25 26 27 26 27 28 30 31 31 31 31 31 31 31 31 31 31 32 32 32 31 31 31 30 31 34 38 39 39 38 38 38 38 37 37 40 42 42 43 44 43 42 43 44
45 45 44 44 44 46 49 50 50 50 49 49 49 49 48 47 45 42 38 35 32 29 27 26 26 26 24 24 23 21 20 19 19 20 20 21 21 22 23 24 25 26 27 27 27 27 29 30 31 31 30 29 30 29 29 30 32 34 35 35 36 37 37 37 35 33 34 37 38 38 38 37 36 35 34 33 36 40 40 40 42 41 38 38 41
44 44 44 44 45 46 48 49 49 49 49 49 49 48 48 46 44 41 37 34 31 29 27 27 26 25 24 23 22 20 19 19 19 19 20 21 22 23 24 25 26 27 27 28 28 28 29 30 31 30 29 29 29 29 29 31 34 37 39 39 40 41 42 43 43 41 39 40 41 40 40 39 38 38 38 38 38 40 39 37 39 42 40 39 42
42 43 44 44 45 45 47 48 48 48 49 49 49 48 48 46 43 40 36 33 30 28 27 27 26 24 23 22 20 18 18 18 18 19 20 21 22 24 25 26 27 28 28 28 29 29 30 31 31 30 29 28 27 27 29 30 33 37 40 40 41 43 44 44 45 45 44 44 43 42 43 44 43 41 42 42 40 40 40 38 40 43 41 42 46
42 43 44 43 43 44 46 47 48 48 49 49 49 49 48 45 42 39 35 32 30 29 28 27 25 23 22 20 18 18 18 18 18 19 21 22 24 26 27 28 28 28 29 29 30 30 30 31 31 29 27 26 26 27 29 30 32 34 36 37 38 40 42 44 45 45 45 46 45 44 45 46 45 43 44 44 42 41 40 37 39 42 42 43 47
41 42 42 41 42 44 45 47 48 48 48 48 49 49 47 44 41 38 35 32 30 29 27 25 24 22 20 19 18 18 18 18 18 19 21 23 25 27 28 28 28 27 29 30 30 30 29 29 29 28 28 29 30 29 29 30 32 33 34 35 36 37 40 43 47 48 48 49 48 47 49 49 47 47 48 45 40 38 39 38 38 41 41 41 44
40 40 40 40 42 44 46 48 49 49 49 49 50 49 47 44 41 38 35 32 30 28 26 24 22 21 19 18 17 18 18 18 18 20 22 23 25 27 28 28 27 28 28 29 29 29 29 28 28 28 30 32 33 33 33 35 35 35 35 35 35 36 37 39 43 46 49 51 51 50 52 52 51 49 46 42 38 37 39 38 37 37 38 39 43
38 38 39 40 42 44 47 48 49 49 49 50 50 48 46 43 40 37 35 32 30 27 25 23 21 19 18 17 17 17 17 18 19 20 22 24 24 26 27 27 27 28 29 29 29 28 28 29 30 31 33 34 34 34 37 40 39 38 38 38 38 39 39 39 41 42 44 48 51 51 50 49 50 48 42 39 40 41 42 42 41 41 43 45 46
38 38 38 40 42 44 46 47 48 49 49 50 50 47 45 42 39 37 34 31 29 26 23 21 19 18 17 17 17 17 17 18 20 21 22 24 25 24 25 27 27 28 29 28 27 27 27 29 31 34 35 35 35 37 39 40 40 41 42 44 45 46 45 45 45 44 43 46 50 53 52 50 50 49 46 44 45 46 47 49 48 48 49 49 49
37 37 38 40 41 43 45 46 48 49 49 49 48 46 44 41 38 36 33 30 27 24 21 19 18 18 18 17 17 16 17 19 20 21 23 24 24 24 25 26 27 29 29 27 26 26 27 29 32 35 36 36 37 38 38 37 38 42 44 46 47 48 48 48 48 47 46 47 48 50 51 51 51 52 50 48 49 50 51 51 51 50 50 51 51
37 37 38 40 41 43 45 47 48 48 48 48 48 46 44 41 38 35 31 28 25 22 20 19 18 18 18 18 17 16 17 18 19 21 23 23 23 24 25 26 27 28 28 26 25 26 28 29 32 33 35 37 37 35 34 35 38 41 44 46 47 48 48 48 46 44 44 46 48 48 49 49 49 50 50 48 48 49 48 49 50 50 49 51 52
37 37 39 40 42 44 46 48 48 48 49 49 49 47 45 42 38 34 31 27 24 21 20 19 19 19 19 18 18 17 17 17 18 20 22 22 23 24 25 26 27 26 25 25 25 27 29 30 31 32 35 37 36 33 32 33 36 39 43 47 49 49 49 49 47 45 44 46 48 49 51 50 48 48 49 49 49 49 49 51 53 52 52 54 53
37 38 39 41 42 44 46 48 48 48 50 50 50 49 46 42 38 34 30 26 24 22 21 20 19 19 19 19 19 18 16 16 17 19 20 21 21 23 24 25 24 24 24 25 26 28 30 30 29 31 34 35 33 32 32 33 36 40 44 48 51 52 51 49 47 46 45 46 48 49 50 51 50 49 49 48 48 48 49 51 51 49 51 54 52
35 36 38 40 42 44 46 47 47 48 50 51 51 48 45 41 37 32 29 26 24 23 21 20 20 19 19 19 19 17 15 15 17 18 18 19 20 21 22 22 21 22 24 26 27 29 31 32 31 31 33 33 31 32 33 35 38 42 44 47 50 50 48 45 45 47 48 48 48 49 50 50 50 50 49 47 47 47 49 51 49 48 51 53 52
32 34 37 39 41 43 45 47 47 49 51 52 50 47 44 40 36 32 30 27 24 22 21 21 20 19 19 19 19 17 15 14 16 17 17 17 18 18 18 18 20 22 24 26 28 30 32 32 32 32 33 32 32 34 36 36 37 39 41 42 45 46 45 44 44 45 46 48 49 49 50 50 50 51 51 50 49 49 51 53 52 52 53 54 54
31 33 36 39 41 43 45 46 47 49 51 52 50 47 43 39 36 32 30 27 24 22 22 21 20 19 19 19 17 16 14 14 15 16 16 15 15 15 15 16 18 20 23 25 28 30 32 33 34 34 33 32 33 35 35 34 34 35 36 37 39 40 41 43 44 44 44 47 49 48 47 47 48 49 49 49 48 47 48 50 51 51 53 55 56
31 33 36 40 41 42 44 46 48 50 52 52 51 48 43 39 35 32 29 26 24 23 22 21 20 20 19 17 15 14 13 14 15 15 14 14 13 12 12 14 16 19 23 25 27 29 31 32 35 35 33 32 33 33 32 32 31 31 31 32 35 37 38 40 42 41 41 41 42 42 42 42 43 45 46 47 48 48 49 50 50 51 53 54 56
32 34 37 40 41 43 44 47 51 53 53 53 50 47 43 39 35 32 28 26 25 24 23 22 21 20 18 16 14 12 12 13 14 13 13 12 10 9 11 13 15 17 21 24 27 29 30 31 33 33 32 33 33 32 32 31 30 29 30 32 34 35 35 36 36 36 35 35 35 36 37 38 40 42 43 45 46 47 48 49 49 49 51 53 54
34 36 38 41 42 44 46 50 53 55 55 53 49 45 42 38 34 31 28 26 25 24 23 23 21 19 17 14 12 12 12 12 12 12 11 10 8 9 11 13 15 17 20 23 26 27 27 29 31 32 32 33 33 33 33 31 30 29 31 33 33 33 32 33 33 35 37 36 35 35 35 34 36 38 40 41 43 45 45 47 49 49 51 53 53
36 38 40 42 43 45 48 52 55 56 55 52 49 45 41 36 33 30 28 26 25 24 23 22 20 18 16 13 12 12 12 12 11 10 9 8 9 10 12 14 16 17 20 23 25 24 25 28 31 31 32 32 33 33 33 32 30 30 30 31 32 32 32 34 35 36 37 37 37 37 37 35 33 34 36 38 41 44 45 47 48 48 48 50 51
38 39 42 43 44 47 51 55 57 56 53 50 46 43 39 35 32 30 28 26 25 24 23 21 19 18 15 13 12 12 12 11 9 8 8 9 11 12 14 15 17 18 21 22 22 23 26 28 30 30 31 31 31 31 32 32 31 31 31 33 33 33 33 33 35 36 37 38 38 38 38 37 35 34 35 36 38 41 43 46 47 46 46 47 48
39 41 43 44 46 49 54 58 60 57 54 50 45 40 37 34 32 30 28 27 26 24 23 21 19 17 15 13 13 12 10 8 6 6 8 10 11 13 15 17 18 20 20 21 21 24 26 26 27 29 30 30 30 29 30 32 33 33 34 35 36 36 34 32 33 34 36 37 37 37 37 37 37 38 37 37 36 37 38 42 44 45 45 45 45
42 43 44 46 48 52 57 61 61 58 54 50 45 41 37 33 31 29 27 26 25 24 23 21 18 16 14 14 13 11 8 5 3 6 8 9 10 12 15 16 18 19 19 18 21 23 24 25 27 29 30 31 31 31 32 33 34 34 36 37 37 38 37 34 33 33 34 36 37 37 38 38 39 39 38 38 37 36 35 38 41 43 45 46 45
44 45 46 48 51 55 59 61 61 58 53 47 42 38 35 32 30 28 26 24 22 21 20 18 16 15 14 13 12 9 5 1 3 4 5 6 8 10 13 15 17 17 16 18 20 22 23 25 27 30 31 32 33 33 35 36 37 37 38 38 39 41 41 39 36 35 36 37 38 38 38 38 39 39 39 38 38 38 38 38 38 39 42 44 45
46 48 49 51 54 58 61 61 59 56 52 48 43 37 32 30 28 27 25 24 22 21 19 17 16 15 14 12 10 6 3 2 2 1 4 6 6 8 11 13 14 15 15 17 19 21 24 26 28 30 31 32 33 34 36 38 39 40 40 40 41 43 43 42 39 37 37 38 39 38 37 38 39 40 40 39 39 39 41 41 39 38 39 41 43
49 51 52 55 58 61 63 62 58 55 51 47 43 39 35 32 29 26 25 24 22 21 19 18 16 15 13 10 7 4 3 2 1 2 4 5 6 8 10 11 12 14 16 18 18 20 23 26 27 29 30 31 33 34 36 38 40 41 42 43 44 44 45 45 42 39 38 39 40 39 38 39 41 41 40 39 38 39 41 41 39 37 36 37 40
52 54 55 58 60 62 64 63 60 56 51 45 42 40 38 36 33 29 27 25 23 22 20 18 16 14 12 9 7 5 4 3 2 2 3 5 6 7 8 10 12 14 15 16 18 20 22 24 26 28 30 32 33 34 36 38 39 41 42 44 45 46 47 47 44 40 39 40 41 42 41 42 42 42 41 39 38 38 39 39 38 36 34 35 37
53 55 57 60 62 63 64 63 61 57 52 47 43 40 39 37 36 33 30 27 24 22 21 18 16 13 11 9 7 6 5 4 2 3 3 4 5 6 7 9 12 13 14 16 18 20 22 23 26 28 30 31 33 34 36 37 39 40 42 43 45 47 47 46 44 41 39 41 44 44 44 44 43 42 42 41 39 38 38 37 37 36 34 34 34
54 56 59 61 64 65 66 64 60 56 51 47 44 41 38 36 35 34 33 31 28 25 22 20 18 16 14 12 10 8 6 4 3 4 3 3 4 5 7 8 9 11 13 15 18 20 23 25 26 28 29 30 32 34 36 38 39 40 42 43 44 47 48 48 46 43 43 45 48 46 45 45 44 43 42 41 40 40 39 38 37 36 35 34 33
55 57 59 61 64 66 66 64 59 55 50 46 44 41 38 36 34 33 33 32 30 28 26 23 20 18 16 15 13 10 8 6 5 5 4 3 3 5 6 6 7 9 12 15 17 20 23 25 26 28 30 30 31 33 35 37 38 40 42 43 45 46 49 50 48 46 46 49 51 49 47 47 46 43 42 42 41 41 40 39 37 35 35 35 34
56 58 60 62 64 66 65 62 57 53 49 45 42 40 38 36 34 32 31 29 28 26 25 24 21 19 17 16 14 12 10 7 6 6 4 2 3 4 5 6 9 12 14 16 18 20 22 24 26 28 30 30 31 32 34 36 38 40 41 43 44 46 48 49 48 47 49 53 53 51 49 49 48 46 44 42 41 41 41 41 39 37 36 35 33
57 59 61 63 64 64 62 58 53 49 46 43 40 38 36 35 34 32 31 28 26 25 25 24 22 20 18 17 15 13 10 8 7 6 3 2 3 4 6 8 11 13 15 18 20 21 22 24 26 28 30 31 31 32 34 35 37 39 41 43 44 45 47 48 48 48 51 56 55 53 52 52 50 48 45 43 43 43 43 42 40 39 37 35 33
56 58 60 61 62 63 60 56 51 48 44 41 39 37 36 36 34 32 31 29 27 26 25 24 22 20 19 18 15 13 11 9 7 5 3 2 2 3 6 9 11 14 16 18 20 22 23 24 26 27 29 31 32 33 34 35 37 40 42 43 44 46 47 48 48 49 54 58 57 55 54 53 52 50 46 44 45 46 46 44 41 40 39 37 35
53 55 57 59 61 61 59 55 50 45 42 40 38 37 37 36 35 33 32 31 29 27 26 24 22 21 20 18 15 13 11 9 8 6 4 2 1 4 6 9 11 14 16 18 20 22 24 25 26 27 28 30 32 33 34 35 37 39 41 43 45 47 48 48 49 52 57 61 59 57 56 55 54 51 47 44 44 45 45 45 44 40 38 38 36
53 55 58 60 61 59 56 52 47 43 41 40 39 37 37 36 35 34 33 31 29 28 26 25 24 22 20 18 16 14 12 11 10 8 5 2 2 5 7 9 12 14 16 18 20 22 24 25 26 27 27 29 31 33 34 34 36 38 41 42 44 46 47 47 48 53 60 62 60 59 59 58 56 53 49 46 46 44 44 46 46 41 37 36 35
54 56 58 60 60 56 52 47 43 41 40 40 39 38 36 35 34 33 31 30 29 28 27 26 24 22 20 18 17 15 13 12 10 7 4 2 3 5 8 11 13 15 17 18 20 21 23 25 26 27 27 28 29 31 33 34 35 37 40 43 44 47 48 48 49 55 61 63 61 61 61 59 57 53 50 48 47 45 45 46 47 42 37 35 34
55 57 58 58 56 52 47 43 41 41 41 40 39 37 35 34 33 32 31 31 30 29 28 27 25 23 21 20 18 17 14 12 9 6 4 3 4 6 9 11 13 15 17 19 20 22 23 25 26 27 28 29 29 30 32 34 35 37 40 43 45 47 49 48 51 57 62 62 62 62 61 60 57 54 52 50 49 47 47 48 47 43 38 35 33
55 57 57 56 52 47 44 42 42 42 41 40 38 36 35 34 34 33 32 32 31 30 29 27 26 25 23 21 19 17 15 12 9 6 4 3 4 6 8 10 12 14 16 18 20 21 23 24 26 27 28 29 29 29 30 32 34 36 39 42 45 47 49 49 52 58 62 63 63 63 62 60 58 56 54 52 50 49 49 49 47 43 39 35 32
54 54 55 52 48 45 44 43 43 42 40 38 37 37 36 36 36 35 34 33 32 30 28 27 26 25 23 21 19 17 14 11 9 6 4 3 4 6 8 9 11 13 14 16 18 20 22 24 25 26 28 29 30 29 28 30 32 34 37 41 45 47 49 49 53 58 61 62 63 63 62 60 59 57 56 55 53 52 52 51 49 44 39 35 32
53 53 53 50 46 44 43 43 42 41 40 39 39 38 37 36 36 35 33 32 31 30 29 27 26 24 22 20 18 15 13 10 8 6 3 3 4 6 7 9 11 13 14 16 18 20 22 23 25 27 28 29 31 30 29 29 30 32 35 38 43 47 48 50 52 55 58 61 62 61 60 60 59 58 57 56 54 53 52 52 50 44 39 35 32
53 53 50 48 46 44 43 42 41 40 40 39 39 39 37 36 35 33 32 31 30 29 28 26 25 23 21 18 16 13 11 9 7 5 3 2 4 5 7 9 11 13 15 17 18 20 22 23 25 27 29 30 31 32 31 30 29 31 33 37 42 46 48 50 51 53 57 60 60 59 58 59 59 58 57 56 54 53 52 52 50 45 40 36 33
53 52 49 47 46 44 43 42 41 40 39 39 38 38 37 35 34 32 31 29 28 27 26 24 22 20 18 16 14 12 10 9 6 4 2 2 3 5 6 9 11 13 15 17 18 20 21 23 24 26 28 30 31 32 33 31 30 30 33 37 42 46 48 49 49 52 56 59 59 57 57 58 58 58 57 56 54 54 53 53 50 46 41 37 33
51 48 47 46 45 44 43 42 40 38 38 38 37 36 35 34 32 31 29 28 27 25 23 21 19 17 16 14 13 12 10 8 6 3 2 2 3 5 7 9 11 13 14 16 18 19 21 23 24 25 27 29 31 32 33 33 31 31 32 36 41 45 47 47 47 50 55 58 58 57 57 58 57 57 57 55 55 54 53 52 52 49 43 38 34
46 45 44 43 42 42 41 40 39 38 37 37 36 35 34 32 31 30 28 27 25 23 21 19 18 16 15 14 13 11 9 7 5 3 1 2 4 6 8 10 11 13 14 16 18 20 21 22 24 25 27 28 30 32 33 33 33 32 33 36 41 44 45 46 47 49 54 57 58 57 57 58 57 57 56 55 55 54 53 52 53 51 46 40 35
43 43 42 41 39 38 37 37 36 36 35 35 34 33 32 31 30 28 27 26 24 22 20 19 17 16 15 14 12 10 8 7 4 2 0 2 4 6 8 10 11 13 15 17 18 20 21 23 24 25 27 28 29 31 32 33 33 32 33 36 40 43 45 46 46 48 52 56 57 56 57 58 58 58 57 56 55 55 54 53 53 52 48 43 37
41 39 38 37 36 35 34 34 34 34 33 33 32 31 30 29 28 27 25 24 22 21 19 18 16 15 14 13 11 9 8 6 4 2 1 3 5 7 8 10 11 13 15 17 19 20 22 23 24 26 27 29 29 31 32 32 32 32 33 35 38 42 44 45 46 47 51 55 57 56 57 57 57 58 58 57 56 56 55 54 53 52 51 46 40
Wind_Direction
237 237 237 237 237 237 239 240 240 240 238 236 235 234 232 231 229 228 229 230 232 234 236 240 244 248 253 257 261 267 272 278 282 285 288 290 291 293 293 295 298 302 305 306 305 304 302 301 300 298 293 289 286 284 281 279 277 275 273 273 270 264 262 262 264 270 275 276 280 284 286 289 288 285 288 289 287 287 283 278 277 278 277 275 273
239 239 238 237 238 237 237 237 238 238 237 236 234 232 231 229 228 228 229 229 231 233 235 240 243 248 253 257 261 267 273 277 280 283 286 288 289 290 291 294 298 302 303 303 303 303 302 301 300 297 293 290 289 288 286 285 282 279 277 274 266 259 255 259 264 271 275 274 275 280 282 283 284 285 289 289 286 286 283 279 278 278 278 277 276
239 239 238 238 238 237 236 236 236 236 236 235 233 230 229 228 227 228 229 229 230 232 235 239 244 248 253 257 261 267 272 275 278 281 284 286 286 287 291 294 298 299 300 301 303 304 303 303 303 299 296 294 294 294 293 291 288 282 281 278 268 259 255 256 261 268 274 275 273 275 278 281 284 286 289 289 287 287 284 282 283 283 283 283 282
238 238 239 239 238 237 236 235 235 235 235 234 231 229 227 226 226 227 228 229 230 232 236 239 244 249 253 256 261 266 270 273 277 280 282 283 284 287 291 294 296 297 299 302 304 305 305 305 305 303 301 300 300 300 298 297 294 288 285 283 275 266 262 260 260 263 270 274 273 272 276 282 284 284 285 286 286 286 286 286 287 288 287 285 282
238 239 239 239 238 238 236 235 235 234 234 233 230 227 225 224 225 226 226 228 230 232 236 240 245 250 253 257 261 265 269 273 277 279 281 282 285 290 292 293 295 297 299 303 305 306 307 307 307 306 305 304 306 306 305 304 302 297 294 291 286 279 272 268 264 262 266 272 273 274 277 281 283 284 285 286 287 288 289 289 290 290 289 288 288
239 239 239 239 239 239 237 235 235 234 233 231 228 225 223 223 223 224 225 227 230 233 237 242 247 251 254 257 261 264 269 274 277 279 281 283 287 291 292 293 296 297 300 304 306 308 308 309 308 308 308 309 311 312 310 308 306 303 301 297 294 290 282 276 272 268 268 271 273 276 277 278 281 283 284 285 287 289 291 291 290 291 293 294 295
241 241 240 240 240 240 238 236 234 233 231 229 226 223 222 222 222 223 224 226 229 233 238 242 247 251 254 257 261 266 271 274 277 279 282 286 289 290 292 294 296 298 302 305 307 309 310 310 310 310 311 312 314 314 312 309 307 304 301 298 296 293 289 284 281 274 270 270 273 275 276 277 279 281 283 286 286 286 287 289 288 291 295 294 294
244 243 242 242 242 241 237 234 231 230 229 226 223 221 220 220 220 221 223 225 229 233 238 243 247 250 254 258 263 268 272 274 278 281 284 288 290 291 293 295 297 299 303 305 309 311 311 311 310 311 314 316 317 316 312 308 305 301 298 297 295 292 289 285 284 280 274 271 272 273 273 275 276 277 281 284 284 283 284 285 285 289 293 294 294
246 245 244 244 242 238 233 230 228 227 225 222 220 219 219 218 218 219 221 224 228 233 238 242 247 250 254 259 264 270 273 277 281 285 288 290 292 293 294 295 298 301 304 307 311 313 313 312 311 314 318 318 314 306 298 294 291 289 289 290 290 291 288 284 282 280 275 270 270 271 272 272 275 277 278 281 283 283 284 284 283 287 291 292 293
247 245 244 243 239 234 230 228 225 223 221 219 218 218 217 216 216 217 219 222 227 232 238 242 246 251 255 260 266 270 274 279 285 288 292 293 293 294 295 297 300 303 306 310 312 314 314 312 312 314 313 309 303 292 282 279 280 281 282 281 280 284 285 282 280 278 274 270 267 269 270 270 272 275 276 280 284 284 283 282 282 287 290 291 294
246 245 244 241 236 232 229 226 223 220 219 217 217 216 215 215 214 215 217 221 226 231 237 242 246 251 256 261 266 271 276 283 289 293 295 296 296 297 298 300 303 305 307 310 312 313 312 310 310 310 307 309 310 302 292 286 281 279 282 280 276 276 278 278 279 277 275 272 269 268 269 269 271 274 276 279 281 280 280 280 282 285 286 288 291
246 245 243 240 236 233 229 225 221 219 218 216 216 215 214 213 212 214 216 220 225 230 235 241 245 251 257 261 267 273 280 288 294 297 297 297 299 299 300 301 302 304 307 309 310 310 311 311 311 309 310 314 314 307 303 301 293 283 281 281 277 274 273 274 278 278 276 274 272 269 268 269 270 272 274 274 275 278 280 280 280 281 282 284 285
247 245 242 239 236 232 227 223 220 218 217 216 215 213 212 211 211 213 215 219 224 229 234 239 245 251 257 263 270 276 284 292 297 298 298 299 299 298 298 299 301 304 306 306 307 310 314 315 314 315 317 317 312 306 305 305 302 296 291 288 285 282 277 274 278 281 279 277 275 272 270 271 270 269 270 270 273 278 278 277 278 278 279 280 280
246 244 241 237 234 229 225 222 219 217 215 214 213 211 210 210 210 212 215 219 223 228 232 239 245 253 260 266 273 280 288 295 299 300 299 299 298 296 296 297 299 301 302 303 307 313 318 319 318 319 319 315 311 311 309 305 303 302 299 295 293 293 289 284 283 282 281 279 276 274 272 272 272 270 270 271 273 275 275 276 278 277 278 279 278
244 242 238 234 230 226 223 220 217 216 215 212 210 209 208 208 209 212 215 219 223 227 232 239 247 255 262 268 274 281 289 294 298 300 298 297 296 294 293 294 296 298 300 305 312 317 319 320 319 318 316 312 311 310 308 304 300 299 298 296 295 295 294 292 290 286 282 279 277 276 274 272 272 271 271 271 272 273 274 275 276 277 278 278 278
241 238 235 231 228 225 223 220 218 216 214 211 209 207 207 208 209 212 215 219 222 226 233 241 250 256 261 267 273 279 285 291 295 297 297 295 293 291 291 293 294 298 304 311 317 320 323 324 321 316 310 307 307 305 301 300 299 298 297 296 296 294 293 293 291 285 280 277 275 274 274 273 272 270 269 270 270 271 273 273 273 276 277 276 276
238 236 234 231 229 227 225 222 219 217 214 210 208 207 207 207 209 212 215 218 222 227 235 242 249 254 259 264 269 274 280 287 293 295 294 292 290 289 290 292 295 301 309 316 320 323 325 323 316 309 304 303 305 304 302 303 301 299 298 297 297 296 294 294 291 285 279 277 274 273 273 273 271 269 268 267 267 268 269 268 270 273 273 273 273
237 236 235 233 230 228 226 223 220 216 212 209 207 206 206 207 208 211 214 217 222 228 235 242 247 251 257 261 266 270 277 285 289 291 291 288 286 287 289 293 299 307 315 320 323 323 321 316 310 304 305 309 310 309 308 308 306 303 302 301 300 298 296 296 295 290 285 281 278 275 274 273 271 271 269 266 265 265 265 266 270 271 268 268 270
239 238 236 234 231 228 226 223 219 215 211 208 207 205 205 206 207 209 212 216 221 227 234 241 245 249 254 259 264 269 275 282 286 286 285 283 283 287 290 296 305 315 322 324 322 318 315 315 313 312 316 320 317 312 311 311 308 305 303 302 300 298 297 297 296 294 292 288 285 282 280 278 274 273 271 267 265 263 262 265 269 269 267 267 268
240 239 236 232 229 227 225 221 217 213 209 206 205 204 205 206 206 209 212 215 220 227 233 238 242 248 253 257 262 268 273 280 282 281 279 281 284 287 292 302 314 322 324 320 315 313 314 316 318 325 331 329 319 314 313 312 309 306 303 301 298 297 299 300 298 297 294 291 288 286 285 282 277 272 269 268 267 265 262 262 264 264 264 265 266
238 237 234 230 227 224 222 219 215 211 208 206 204 203 204 206 207 209 212 215 220 225 231 236 241 246 250 253 258 266 273 277 277 276 278 282 285 289 297 311 320 319 314 311 311 314 317 322 328 336 337 326 317 315 315 315 313 308 303 300 298 299 302 302 301 299 295 291 289 288 287 284 277 272 270 269 269 269 266 265 263 262 262 263 264
237 236 232 228 224 221 218 216 212 209 206 205 204 203 203 205 207 209 211 215 220 224 229 234 238 241 244 249 255 263 271 275 275 277 280 283 287 296 309 317 316 310 308 311 316 318 322 329 336 339 333 322 319 320 319 319 318 313 309 307 306 306 305 302 300 300 298 296 294 291 289 285 279 274 272 270 270 271 271 270 266 263 262 262 262
236 234 229 225 221 218 215 211 208 206 204 204 204 204 204 204 206 208 211 215 219 223 228 231 233 235 239 244 250 257 263 269 274 279 281 284 294 312 320 315 310 310 311 315 321 325 330 334 334 333 329 326 327 328 326 325 327 324 319 316 313 311 307 304 304 307 307 305 301 295 290 286 282 279 276 274 274 274 273 272 270 267 265 264 263
233 230 226 222 218 215 212 208 205 204 203 203 204 204 205 205 205 206 210 214 219 223 226 227 228 229 233 237 243 250 257 262 269 275 280 292 315 331 327 318 318 320 319 322 328 332 332 330 329 329 331 331 333 333 331 333 334 330 323 319 318 318 317 316 317 316 313 310 306 301 295 290 285 281 278 277 278 278 276 273 272 270 267 266 264
232 228 223 219 216 212 209 206 203 203 203 204 204 204 205 205 205 206 209 213 218 221 222 223 225 226 227 230 234 243 253 258 263 272 289 318 340 341 331 326 329 330 326 328 334 333 328 327 329 331 334 336 337 337 336 338 337 334 331 328 326 326 326 324 323 319 313 308 305 302 300 297 292 287 282 280 280 280 278 275 272 271 269 266 264
231 226 221 217 213 210 206 203 201 201 202 203 205 206 207 207 207 209 211 213 216 218 219 220 222 223 223 224 228 236 246 255 265 286 322 345 348 341 334 332 334 333 331 334 336 332 329 330 331 334 337 340 341 340 340 341 341 340 341 339 336 334 331 327 324 320 314 309 305 302 300 299 298 295 290 285 280 277 276 276 273 270 268 264 262
231 225 220 216 211 208 205 202 200 200 200 201 202 203 205 207 210 212 213 213 214 215 217 219 220 221 220 221 226 232 239 252 276 322 353 355 344 335 335 336 336 336 338 339 335 330 331 333 333 337 340 341 342 343 344 344 345 346 346 344 341 339 335 328 322 318 315 312 309 305 302 301 301 300 298 297 290 281 278 277 273 268 266 263 261
231 225 220 215 210 206 204 202 200 199 199 199 199 200 202 205 209 213 215 216 217 216 217 218 218 218 219 222 227 230 233 250 319 1 0 348 335 330 332 333 335 338 340 336 330 329 334 336 339 343 345 345 347 348 349 349 350 349 348 346 344 343 341 335 328 322 320 319 315 311 309 307 306 305 304 303 298 290 286 283 276 270 266 262 260
229 224 218 213 209 205 202 202 201 199 198 197 197 200 203 207 210 211 211 212 214 215 218 217 215 215 218 220 224 226 228 240 37 20 344 328 325 324 326 329 333 336 336 332 330 333 339 344 348 350 351 351 351 352 351 352 352 351 350 348 346 346 345 342 335 329 327 326 322 318 315 313 311 310 307 302 298 294 291 288 283 277 270 261 257
226 221 216 211 207 204 201 200 200 200 199 196 194 194 197 202 206 208 207 207 207 208 211 212 210 212 215 216 216 216 203 94 69 353 313 319 322 320 322 327 331 330 331 333 335 337 344 351 355 355 354 354 355 354 354 353 351 349 350 349 348 348 346 344 341 335 331 329 326 322 319 315 313 312 308 303 299 297 295 292 288 284 277 266 258
224 219 215 211 208 204 201 198 198 198 198 198 197 195 193 193 195 198 201 203 202 202 204 204 203 205 207 209 207 194 158 133 152 290 306 317 321 323 324 327 329 330 332 335 340 345 351 356 357 356 356 357 357 356 355 354 351 349 349 348 349 349 348 347 345 340 334 331 329 325 321 316 314 312 308 305 301 298 297 297 293 290 284 276 267
227 221 215 210 207 204 200 198 197 196 195 196 197 198 196 193 190 190 193 195 197 198 199 199 200 200 199 198 195 183 172 179 225 284 303 311 320 327 328 327 329 331 332 336 343 351 358 359 359 358 358 357 357 357 356 355 352 350 348 347 348 349 349 349 348 342 336 333 331 327 323 319 316 313 310 306 303 300 298 297 294 292 288 282 275
229 222 215 209 205 202 199 198 197 195 194 193 193 195 196 196 192 189 187 187 189 194 195 194 195 195 194 191 189 191 191 194 232 269 287 304 318 331 335 330 329 331 337 343 350 356 2 3 1 360 358 356 356 356 356 355 353 350 349 347 346 347 349 350 350 347 341 336 332 329 326 323 320 316 312 308 305 302 299 296 294 291 289 286 280
227 222 217 211 206 201 199 198 197 195 194 194 194 194 194 195 194 191 187 184 184 189 190 189 189 192 194 192 191 197 202 206 229 254 269 290 317 342 347 337 330 336 347 355 0 4 7 6 3 0 357 354 354 354 354 355 354 351 349 347 346 347 347 349 351 350 344 338 334 331 328 326 323 319 315 311 307 303 300 297 294 290 287 286 282
223 219 216 212 207 202 198 196 195 193 193 194 195 194 192 191 192 192 191 190 190 190 189 186 187 191 193 193 195 200 203 206 220 238 256 285 331 354 348 335 339 353 2 7 12 13 10 6 4 1 357 354 353 353 354 355 355 354 351 348 346 347 346 348 351 350 343 338 335 332 330 328 326 323 318 313 308 304 301 298 295 291 286 284 282
219 215 212 210 206 202 198 195 193 192 192 192 193 192 191 190 190 190 191 193 194 190 185 183 186 189 191 192 196 199 197 199 214 228 243 283 343 359 353 353 5 10 11 13 15 15 11 6 3 2 360 357 355 354 355 356 357 356 354 350 347 346 345 347 349 347 341 338 336 334 331 330 329 326 322 317 310 306 303 300 297 293 287 281 279
217 213 210 207 203 198 194 191 190 191 192 191 190 188 187 188 188 188 189 191 189 184 181 183 186 188 190 192 194 194 192 196 211 222 238 305 343 357 5 13 16 15 14 14 13 11 10 6 3 2 1 359 357 355 356 357 358 357 356 353 350 348 347 348 349 346 341 338 337 335 333 332 331 329 325 319 314 310 308 305 301 298 294 286 279
214 210 207 203 198 194 190 187 186 187 189 188 187 185 185 186 187 187 188 187 184 182 183 185 185 188 190 191 189 189 190 196 207 218 240 291 328 1 16 21 21 18 16 13 10 8 8 5 3 2 1 360 358 356 356 358 359 359 357 355 353 351 350 351 350 345 341 340 338 336 334 333 332 331 327 321 317 315 313 310 307 301 297 294 286
208 205 201 197 192 190 188 185 183 184 184 184 184 184 184 184 184 185 186 185 183 182 184 184 186 188 190 189 187 186 189 195 206 215 222 230 1 28 26 25 24 21 18 14 10 7 6 4 2 1 1 360 358 357 357 358 359 360 358 356 354 352 352 352 349 345 342 341 339 337 336 334 333 332 329 323 320 318 315 313 311 303 294 292 290
201 198 195 192 188 186 185 184 182 182 181 182 182 183 184 184 184 184 184 183 182 182 182 184 187 188 187 187 187 187 188 192 196 197 193 171 59 37 29 25 23 21 18 15 11 7 5 3 2 0 359 359 358 357 357 357 358 360 360 358 355 353 353 353 349 345 343 342 340 338 337 336 335 333 331 327 324 321 317 316 316 310 299 294 292
194 191 189 187 185 183 181 181 182 182 181 181 182 182 183 183 183 183 183 182 182 182 182 184 185 185 185 185 185 184 183 182 178 172 160 120 60 39 30 24 21 19 15 12 10 7 4 2 1 360 359 358 357 355 355 357 358 360 360 358 355 354 354 354 349 345 344 342 341 339 338 337 336 334 332 330 328 324 321 322 323 319 311 303 297
188 185 183 182 181 180 179 179 181 182 181 181 180 180 180 181 182 182 183 183 184 184 183 183 183 182 183 183 180 177 174 169 163 157 144 106 56 37 30 23 20 18 13 9 7 5 3 2 1 0 359 358 355 354 355 357 359 0 360 358 356 354 354 352 348 346 345 343 341 340 339 339 338 336 333 333 331 328 327 328 329 326 319 310 303
183 182 180 179 178 178 179 181 181 181 180 178 177 177 179 181 182 183 183 184 184 184 183 182 180 178 177 176 173 169 165 161 158 154 136 94 52 35 28 23 20 17 12 7 4 2 0 360 359 359 360 359 356 354 354 357 0 1 0 359 357 356 355 352 347 346 345 343 342 341 341 341 340 338 336 336 335 333 333 334 333 330 324 316 308
180 179 178 176 175 177 180 181 180 178 176 175 175 177 179 181 182 183 183 183 182 182 181 179 177 174 172 170 167 164 160 157 156 151 131 90 49 31 24 19 17 14 9 4 1 358 357 357 357 357 358 360 358 355 354 356 0 3 3 1 359 358 356 351 347 346 345 344 342 343 343 343 342 340 339 339 338 337 338 339 338 335 330 324 316
179 178 177 175 175 176 177 177 176 175 174 175 176 177 179 180 181 182 182 182 181 179 178 176 174 171 169 166 163 160 158 156 156 151 130 87 46 29 20 14 11 8 4 1 358 356 354 355 355 354 355 357 359 358 356 355 358 3 6 5 1 358 355 350 346 346 346 345 344 344 344 344 343 342 342 342 341 340 341 342 343 341 338 333 325
179 179 177 175 174 174 173 173 174 174 174 176 177 176 177 179 180 180 180 180 179 178 176 174 172 169 167 163 160 159 159 160 159 155 131 81 43 25 16 10 6 3 0 357 355 354 353 353 352 352 353 354 357 358 357 355 356 2 7 10 7 1 355 351 347 347 347 347 347 347 347 346 346 346 345 344 344 343 344 346 348 347 344 342 337
179 178 176 174 173 171 170 172 174 174 175 176 177 177 176 177 178 179 179 179 178 177 175 173 171 168 165 163 162 163 165 166 164 159 134 73 37 21 13 8 3 1 358 355 353 353 352 351 351 351 351 352 354 357 357 355 356 359 5 11 10 3 356 352 349 348 348 349 350 350 350 349 348 348 348 347 346 347 348 350 352 353 351 350 347
177 174 173 172 171 170 170 171 172 174 175 176 176 177 176 176 177 178 178 177 177 176 174 173 171 168 167 167 168 169 170 171 170 164 135 55 25 13 7 4 1 359 357 355 353 353 352 351 351 352 351 351 353 355 355 354 355 358 3 10 9 2 355 353 351 349 349 352 354 354 354 352 351 351 351 350 349 349 350 352 356 358 358 356 353
172 170 170 170 170 170 170 171 172 174 175 175 175 176 176 176 176 177 177 177 177 176 174 173 172 171 171 172 174 174 175 177 177 172 137 22 10 6 3 1 358 356 355 355 354 353 352 351 351 353 352 351 352 354 354 353 355 358 4 8 6 358 353 353 353 350 350 355 357 357 356 356 355 354 354 354 352 352 353 356 359 2 2 1 358
168 168 168 168 168 169 169 170 172 173 175 175 175 176 176 176 177 177 177 177 177 175 174 174 174 174 176 178 178 180 181 183 184 188 303 356 359 359 357 356 355 354 354 354 353 351 351 351 352 353 353 352 352 353 354 353 354 358 5 8 2 353 350 353 353 350 352 357 360 359 359 359 358 358 358 357 356 356 357 359 2 5 7 6 3
165 166 165 165 166 167 169 170 172 173 174 175 176 176 176 177 177 176 177 177 176 175 175 176 177 179 182 182 182 185 187 190 199 223 299 337 348 351 351 350 350 351 350 351 350 350 350 350 351 353 353 352 352 353 354 353 352 356 5 8 1 352 350 352 352 350 353 359 2 2 2 2 1 1 1 1 0 360 360 1 4 8 11 11 8